Regional Weather Roundup
Issued by NWS Albany, NY

Home | Current Version | Previous Version | Graphics & Text | Print | Product List | Glossary Off
Versions: 1 2 3 4 5 6 7 8 9 10 11 12 13 14 15 16 17 18 19 20 21 22 23 24 25 26 27 28 29 30 31 32 33 34 35 36 37 38 39 40 41 42 43 44 45 46 47 48

000
ASUS41 KALY 251510
RWRALY

NEW YORK STATE HOURLY WEATHER ROUNDUP
NATIONAL WEATHER SERVICE ALBANY NY
1000 AM EST SUN JAN 25 2015

NOTE: "FAIR" INDICATES FEW OR NO CLOUDS BELOW 12,000 FEET WITH NO
SIGNIFICANT WEATHER AND/OR NO OBSTRUCTIONS TO VISIBILITY.

NYZ032-033-038>043-046>054-057>066-NYZ062>081-251600-
EAST


CITY           SKY/WX    TMP DP  RH WIND       PRES   REMARKS
ALBANY         MOSUNNY   28  12  51 W26       29.75R WCI  13
GLENS FALLS    SUNNY     26   6  42 N8        29.71R WCI  18
POUGHKEEPSIE   SUNNY     38  18  44 W13G26    29.70R WCI  30
NEWBURGH       MOSUNNY   36  21  55 NW17G29   29.70R WCI  25
MONTGOMERY     MOSUNNY   36  17  46 NW15G21   29.70R WCI  27
WHITE PLAINS   PTSUNNY   38  22  52 W12G23    29.69R WCI  30
ISLIP          MOSUNNY   38  28  67 W18G26    29.70R WCI  28
NEW YORK CITY  MOSUNNY   39  28  64 SW8G18    29.74R WCI  33
CENTRAL PARK   SUNNY     39  27  62 W5        29.75R
$$

NYZ005>009-017-018-044>046-055-056-251600-
CENTRAL


CITY           SKY/WX    TMP DP  RH WIND       PRES   REMARKS
FULTON         PTSUNNY   16   5  62 N13       29.87R WCI   2
SYRACUSE       MOSUNNY   16   9  74 NW9       29.85R WCI   4
ROME           SUNNY     16   7  67 W16       29.83R WCI   1
ELMIRA         SUNNY     26   8  46 NW12G20   29.81R WCI  16
BINGHAMTON     MOSUNNY   21  10  62 NW14G24   29.73R WCI   8
MONTICELLO     SUNNY     27  14  59 NW14G25   29.70R WCI  15
$$

NYZ026>034-041>043-251600-
NORTH


CITY           SKY/WX    TMP DP  RH WIND       PRES   REMARKS
WATERTOWN      SUNNY     11  -1  58 NW9       29.88R WCI  -2
FORT DRUM      NOT AVBL
MASSENA        SUNNY      6  -5  60 W14       29.86R WCI -11
SARANAC LAKE   LGT SNOW   3  -2  79 VRB7      29.65R WCI  -9
PLATTSBURGH    SUNNY     15  -1  49 W9        29.74R WCI   3
$$

NYZ001>004-010>016-019>021-251600-
WEST


CITY           SKY/WX    TMP DP  RH WIND       PRES   REMARKS
NIAGARA FALLS  FLURRIES  16  10  77 N13       29.91R WCI   2
BUFFALO        FLURRIES  16  10  77 N12       29.89R WCI   3
DUNKIRK        CLOUDY    19  14  81 NE13      29.89R WCI   6
JAMESTOWN      CLOUDY    18  10  73 N8        29.78R WCI   7
WELLSVILLE     CLOUDY    20  10  65 N12       29.75R WCI   8
ROCHESTER      LGT SNOW  18  11  74 N12       29.89R WCI   5
PENN YAN       PTSUNNY   21  11  65 NW9       29.83R WCI  11
$$

             KEY
       WCI = WIND CHILL INDEX
       VSB = VISIBILITY
       HX  = HEAT INDEX
$$


USA.gov is the U.S. government's official web portal to all federal, state and local government web resources and services.